Date String (YYYY-MM-DD hh:mm:ss) UTC,Instrument flags,Ambient pressure (hPa),Sample flow (lpm),Bypass flow (lpm),Sample temperature (°C),Ambient temperature (°C),ASC tube jacket temperature (°C),LED temperature (°C),Box temperature (°C),Sample RH (%),Span deviation,Mass concentration (μg/m³),Mass concentration (μg/m³),Mass concentration (μg/m³)
DateTimeUTC,F1_M11,P_M11,Q1_M11,Q2_M11,T1_M11,T2_M11,T3_M11,T4_M11,T5_M11,U1_M11,ZSPAN_M11,X0_M11,X2_M11,X1_M11
2021-10-05 00:00:00,,0831.0,4.99,0.00,29.4,28.5,00.0,38.3,31.4,11.6,0001.0,0018.03,0004.12,0003.32
2021-10-05 00:01:00,,0830.9,5.01,0.00,29.5,28.6,00.0,38.4,31.4,11.6,0000.1,0017.45,0004.12,0003.33
2021-10-05 00:02:00,,0831.0,5.00,0.00,29.5,27.4,00.0,38.4,31.1,11.5,0000.0,0016.87,0004.13,0003.34
2021-10-05 00:03:00,,0830.9,5.00,0.00,29.3,25.6,00.0,38.4,30.6,11.5,0000.0,0016.25,0004.11,0003.34
2021-10-05 00:04:00,,0830.9,5.01,0.00,29.2,25.6,00.0,38.3,30.5,11.6,0000.0,0016.08,0004.10,0003.35
2021-10-05 00:05:00,,0830.9,5.00,0.00,29.1,26.0,00.0,38.3,30.6,11.5,0000.0,0015.25,0004.14,0003.36
2021-10-05 00:06:00,,0830.9,5.00,0.00,29.1,26.5,00.0,38.3,30.7,11.5,0000.0,0016.32,0004.17,0003.37
2021-10-05 00:07:00,,0830.9,5.00,0.00,29.1,27.0,00.0,38.2,30.8,11.4,0000.0,0016.98,0004.18,0003.37
2021-10-05 00:08:00,,0830.9,5.00,0.00,29.1,27.4,00.0,38.2,31.0,11.4,0000.0,0017.08,0004.16,0003.37
2021-10-05 00:09:00,,0830.9,5.00,0.00,29.2,27.7,00.0,38.2,31.1,11.2,0000.0,0017.31,0004.18,0003.37
2021-10-05 00:10:00,,0830.9,4.99,0.00,29.2,28.0,00.0,38.2,31.2,11.2,0000.0,0017.35,0004.16,0003.37
2021-10-05 00:11:00,,0830.9,5.00,0.00,29.3,28.3,00.0,38.2,31.3,11.1,0000.0,0016.91,0004.21,0003.38
2021-10-05 00:12:00,,0830.9,5.00,0.00,29.4,28.5,00.0,38.3,31.3,11.2,0000.0,0016.33,0004.22,0003.38
2021-10-05 00:13:00,,0830.9,5.01,0.00,29.4,28.7,00.0,38.3,31.4,11.1,0000.0,0016.65,0004.25,0003.37
2021-10-05 00:14:00,,0830.9,5.01,0.00,29.5,28.8,00.0,38.3,31.5,11.0,0000.0,0017.34,0004.27,0003.37
2021-10-05 00:15:00,,0830.9,4.99,0.00,29.6,29.0,00.0,38.4,31.5,11.0,0000.0,0017.45,0004.28,0003.38
2021-10-05 00:16:00,,0830.9,5.00,0.00,29.6,28.4,00.0,38.4,31.4,11.0,0000.0,0018.66,0004.24,0003.38
2021-10-05 00:17:00,,0830.9,5.01,0.00,29.5,26.2,00.0,38.4,30.8,11.1,0000.0,0018.43,0004.23,0003.37
2021-10-05 00:18:00,,0830.9,4.99,0.00,29.3,25.4,00.0,38.4,30.5,11.4,0000.0,0019.02,0004.26,0003.37
2021-10-05 00:19:00,,0830.8,5.01,0.00,29.2,25.8,00.0,38.3,30.6,11.7,0000.0,0019.77,0004.27,0003.38
2021-10-05 00:20:00,,0830.8,4.99,0.00,29.1,26.3,00.0,38.3,30.7,11.7,0000.0,0018.33,0004.27,0003.38
2021-10-05 00:21:00,,0830.8,5.00,0.00,29.1,26.8,00.0,38.3,30.8,11.7,0000.8,0017.41,0004.27,0003.38
2021-10-05 00:22:00,,0830.8,5.00,0.00,29.2,27.3,00.0,38.3,30.9,11.7,0000.8,0017.93,0004.26,0003.37
2021-10-05 00:23:00,,0830.8,4.99,0.00,29.2,27.6,00.0,38.3,31.1,11.7,0000.6,0018.51,0004.29,0003.37
2021-10-05 00:24:00,,0830.8,5.00,0.00,29.3,28.0,00.0,38.2,31.1,11.8,0001.0,0017.83,0004.29,0003.38
2021-10-05 00:25:00,,0830.9,5.00,0.00,29.3,28.2,00.0,38.3,31.2,11.7,0000.6,0016.84,0004.30,0003.37
2021-10-05 00:26:00,,0830.8,5.00,0.00,29.4,28.4,00.0,38.3,31.3,11.7,0000.0,0016.56,0004.31,0003.37
2021-10-05 00:27:00,,0830.9,5.00,0.00,29.5,28.6,00.0,38.3,31.4,11.7,0000.0,0015.15,0004.32,0003.37
2021-10-05 00:28:00,,0830.9,5.01,0.00,29.5,28.8,00.0,38.4,31.4,11.7,0000.0,0014.10,0004.33,0003.37
2021-10-05 00:29:00,,0830.9,4.99,0.00,29.6,28.9,00.0,38.4,31.5,11.6,0000.0,0013.77,0004.29,0003.36
2021-10-05 00:30:00,,0830.9,5.00,0.00,29.6,28.9,00.0,38.4,31.5,11.6,0000.0,0012.92,0004.29,0003.36
2021-10-05 00:31:00,,0830.9,5.01,0.00,29.6,27.2,00.0,38.4,31.1,11.6,0000.0,0012.87,0004.28,0003.35
2021-10-05 00:32:00,,0830.9,4.99,0.00,29.4,25.6,00.0,38.4,30.7,11.7,0000.0,0012.93,0004.27,0003.35
2021-10-05 00:33:00,,0830.9,5.01,0.00,29.3,25.7,00.0,38.4,30.7,11.8,0000.0,0012.26,0004.24,0003.36
2021-10-05 00:34:00,,0830.9,4.99,0.00,29.2,26.2,00.0,38.4,30.8,11.9,0000.0,0012.14,0004.22,0003.36
2021-10-05 00:35:00,,0830.9,5.01,0.00,29.2,26.7,00.0,38.3,30.9,11.9,0000.0,0012.44,0004.19,0003.35
2021-10-05 00:36:00,,0830.9,4.99,0.00,29.2,27.1,00.0,38.3,31.0,11.9,0000.0,0012.44,0004.21,0003.35
2021-10-05 00:37:00,,0830.9,5.01,0.00,29.3,27.5,00.0,38.3,31.0,11.9,0000.0,0013.63,0004.24,0003.36
2021-10-05 00:38:00,,0830.9,4.99,0.00,29.3,27.8,00.0,38.3,31.1,11.9,0000.0,0015.18,0004.26,0003.36
2021-10-05 00:39:00,,0830.9,5.00,0.00,29.3,28.1,00.0,38.3,31.2,11.9,0000.4,0015.39,0004.27,0003.35
2021-10-05 00:40:00,,0830.9,5.01,0.00,29.4,28.3,00.0,38.3,31.3,11.8,0003.3,0014.56,0004.28,0003.34
2021-10-05 00:41:00,,0830.9,4.99,0.00,29.4,28.5,00.0,38.4,31.3,11.8,0003.2,0014.19,0004.31,0003.34
2021-10-05 00:42:00,,0830.9,5.00,0.00,29.5,28.7,00.0,38.4,31.4,11.8,0000.0,0014.54,0004.31,0003.34
2021-10-05 00:43:00,,0830.9,5.00,0.00,29.5,28.8,00.0,38.4,31.5,11.8,0001.6,0014.38,0004.30,0003.33
2021-10-05 00:44:00,,0830.9,5.00,0.00,29.6,29.0,00.0,38.4,31.5,11.8,0002.9,0014.52,0004.32,0003.33
2021-10-05 00:45:00,,0830.9,5.00,0.00,29.6,28.8,00.0,38.5,31.5,11.9,0002.2,0014.60,0004.38,0003.33
2021-10-05 00:46:00,,0830.9,4.99,0.00,29.6,27.0,00.0,38.5,31.1,12.1,0001.7,0014.48,0004.42,0003.34
2021-10-05 00:47:00,,0830.9,5.00,0.00,29.4,25.5,00.0,38.4,30.6,12.3,0001.1,0015.18,0004.40,0003.34
2021-10-05 00:48:00,,0830.9,5.01,0.00,29.3,25.6,00.0,38.4,30.6,12.4,0000.9,0014.97,0004.44,0003.33
2021-10-05 00:49:00,,0830.9,5.00,0.00,29.2,26.1,00.0,38.4,30.7,12.4,0000.8,0013.90,0004.50,0003.33
2021-10-05 00:50:00,,0830.9,4.99,0.00,29.2,26.6,00.0,38.3,30.8,12.4,0000.4,0014.42,0004.53,0003.34
2021-10-05 00:51:00,,0830.9,4.99,0.00,29.2,27.0,00.0,38.3,30.9,12.4,0000.6,0015.66,0004.55,0003.36
2021-10-05 00:52:00,,0830.9,4.99,0.00,29.2,27.4,00.0,38.3,31.0,12.4,0000.4,0016.18,0004.54,0003.36
2021-10-05 00:53:00,,0831.0,5.00,0.00,29.3,27.7,00.0,38.3,31.1,12.4,0000.2,0016.79,0004.58,0003.36
2021-10-05 00:54:00,,0831.0,4.99,0.00,29.3,28.0,00.0,38.3,31.1,12.3,0000.2,0019.27,0004.61,0003.36
2021-10-05 00:55:00,,0831.0,5.00,0.00,29.3,28.2,00.0,38.3,31.2,12.3,0000.2,0018.89,0004.66,0003.36
2021-10-05 00:56:00,,0831.1,5.01,0.00,29.4,28.4,00.0,38.3,31.3,12.3,0000.0,0018.06,0004.60,0003.36
2021-10-05 00:57:00,,0831.0,4.98,0.00,29.4,28.6,00.0,38.3,31.3,12.3,0000.0,0018.98,0004.54,0003.37
2021-10-05 00:58:00,,0831.1,5.00,0.00,29.5,28.7,00.0,38.4,31.4,12.3,0000.0,0019.18,0004.53,0003.37
2021-10-05 00:59:00,,0831.0,5.01,0.00,29.5,28.8,00.0,38.4,31.4,12.2,0000.3,0018.31,0004.48,0003.38
